Medford, OR

12:54 AM PST on November 18, 2017 (GMT -0800)
Rogue Valley International-Medford

Weather History for KMFR - June, 2013

Change the Weather History Date:

Friday, June 21, 2013

  Actual Average Record
Temperature  
Mean Temperature 63 °F 68 °F  
Max Temperature 80 °F 83 °F 106 °F (1992)
Min Temperature 46 °F 53 °F 36 °F (1916)
Degree Days  
Heating Degree Days 2 1  
Month to date heating degree days 29 46  
Since 1 June heating degree days 29 46  
Since 1 July heating degree days 4031 4243  
Cooling Degree Days 0 4  
Month to date cooling degree days 78 59  
Year to date cooling degree days 113 97  
Since 1 June cooling degree days 78 59  
Growing Degree Days 12 (Base 50)    
Moisture  
Dew Point 40 °F    
Average Humidity 51    
Maximum Humidity 82    
Minimum Humidity 19    
Precipitation  
Precipitation 0.00 in 0.01 in 0.18 in (1943)
Month to date precipitation 0.13 0.50  
Year to date precipitation 3.87 9.34  
Snow  
Snow 0.00 in 0.00 in - ()
Month to date snowfall 0.0 0.0  
Since 1 July snowfall 1.7 4.1  
Snow Depth 0.00 in    
Sea Level Pressure  
Sea Level Pressure 30.09 in    
Wind  
Wind Speed 4 mph (North)    
Max Wind Speed 16 mph    
Max Gust Speed 22 mph    
Visibility 10 miles    
Events      
T = Trace of Precipitation, MM = Missing Value Source: NWS Daily Summary

Daily Weather History Graph

Daily Weather History Graph

Search for Another Location

Airport or City:

Trip Planner

Search our weather history database for the weather conditions in past years. The results will help you decide how hot, cold, wet, or windy it might be!

Date:

Astronomy

Jun. 21, 2013 Rise Set
Actual Time 5:34 AM PDT 8:51 PM PDT
Civil Twilight 4:59 AM PDT 9:26 PM PDT
Nautical Twilight 4:14 AM PDT 10:11 PM PDT
Astronomical Twilight 3:19 AM PDT 11:06 PM PDT
Moon 7:07 PM PDT (6/21) 3:56 AM PDT (6/21)
Length of Visible Light 16h 26m
Length of Day
15h 17m
Waxing Gibbous, 96% of the Moon is Illuminated
Jun 21
Waxing Gibbous
Jun 23
Full
Jun 29
Last Quarter
Jul 8
New
Jul 15
First Quarter

Hourly Weather History & Observations

Time (PDT) Temp. Dew Point Humidity Pressure Visibility Wind Dir Wind Speed Gust Speed Precip Events Conditions
12:53 AM 55.9 °F 43.0 °F 62% 30.10 in 10.0 mi East 3.5 mph - N/A   Clear
1:53 AM 54.0 °F 44.1 °F 69% 30.11 in 10.0 mi Calm Calm - N/A   Clear
2:53 AM 54.0 °F 43.0 °F 66% 30.11 in 10.0 mi Calm Calm - N/A   Clear
3:53 AM 50.0 °F 43.0 °F 77% 30.12 in 10.0 mi Calm Calm - N/A   Clear
4:53 AM 48.9 °F 43.0 °F 80% 30.12 in 10.0 mi Calm Calm - N/A   Clear
5:53 AM 46.0 °F 41.0 °F 83% 30.12 in 10.0 mi Calm Calm - N/A   Clear
6:53 AM 48.0 °F 43.0 °F 83% 30.14 in 10.0 mi Calm Calm - N/A   Clear
7:53 AM 52.0 °F 43.0 °F 71% 30.15 in 10.0 mi North 4.6 mph - N/A   Clear
8:53 AM 55.0 °F 43.0 °F 64% 30.15 in 10.0 mi Calm Calm - N/A   Clear
9:53 AM 60.1 °F 44.1 °F 55% 30.13 in 10.0 mi Variable 3.5 mph - N/A   Clear
10:53 AM 64.0 °F 45.0 °F 50% 30.12 in 10.0 mi Variable 3.5 mph - N/A   Clear
11:53 AM 69.1 °F 42.1 °F 38% 30.11 in 10.0 mi NNE 6.9 mph - N/A   Scattered Clouds
12:53 PM 70.0 °F 39.0 °F 32% 30.10 in 10.0 mi Variable 3.5 mph - N/A   Scattered Clouds
1:53 PM 75.0 °F 35.1 °F 23% 30.08 in 10.0 mi Variable 3.5 mph - N/A   Partly Cloudy
2:53 PM 78.1 °F 37.9 °F 24% 30.05 in 10.0 mi North 5.8 mph - N/A   Partly Cloudy
3:53 PM 77.0 °F 37.9 °F 24% 30.04 in 10.0 mi Calm Calm - N/A   Partly Cloudy
4:53 PM 77.0 °F 41.0 °F 28% 30.03 in 10.0 mi WNW 9.2 mph - N/A   Partly Cloudy
5:53 PM 78.1 °F 39.0 °F 25% 30.02 in 10.0 mi NW 10.4 mph - N/A   Scattered Clouds
6:53 PM 78.1 °F 34.0 °F 20% 30.03 in 10.0 mi NW 11.5 mph - N/A   Partly Cloudy
7:53 PM 75.0 °F 35.1 °F 23% 30.03 in 10.0 mi North 12.7 mph - N/A   Partly Cloudy
8:53 PM 71.1 °F 36.0 °F 28% 30.04 in 10.0 mi NNW 6.9 mph - N/A   Partly Cloudy
9:53 PM 64.0 °F 37.0 °F 37% 30.07 in 10.0 mi NNE 5.8 mph - N/A   Clear
10:53 PM 66.0 °F 39.9 °F 38% 30.08 in 10.0 mi Variable 3.5 mph - N/A   Clear
11:53 PM 62.1 °F 39.0 °F 43% 30.08 in 10.0 mi Calm Calm - N/A   Clear